CT2IRK-11 Weather Reports


Display with metric or nautical units.
time (UTC)temp
F
wind
direction
speed
MPH
gust
MPH
rain 1hr
in
rain 24hr
in
rain mn
in
humidity
%
barometer
mb
20260507142005 77 236 6.0 13.0 0.00 0.01 0.00 34 1002.5
20260507141007 78 236 9.0 12.0 0.00 0.01 0.00 35 1002.5
20260507140006 75 270 7.0 10.0 0.00 0.01 0.00 38 1002.6
20260507134005 74 305 4.0 9.0 0.00 0.01 0.00 37 1002.7
20260507133005 75 231 6.0 12.0 0.00 0.01 0.00 37 1002.7
20260507132005 72 260 7.0 14.0 0.00 0.01 0.00 40 1002.8
20260507131005 75 293 3.0 9.0 0.00 0.01 0.00 38 1002.9
20260507130004 76 276 3.0 8.0 0.00 0.01 0.00 35 1002.8
20260507125005 78 249 5.0 10.0 0.00 0.01 0.00 34 1002.9
20260507124005 77 259 4.0 10.0 0.00 0.01 0.00 35 1003.0
20260507122005 71 270 5.0 8.0 0.00 0.01 0.00 44 1003.5
20260507121005 72 270 9.0 13.0 0.00 0.01 0.00 43 1003.5
20260507120005 77 252 2.0 9.0 0.00 0.01 0.00 36 1003.6
20260507114005 75 202 6.0 12.0 0.00 0.01 0.00 38 1003.8
20260507113006 73 182 6.0 8.0 0.00 0.01 0.00 39 1003.7
20260507112005 76 248 0.0 10.0 0.00 0.01 0.00 38 1003.6
20260507111005 77 233 3.0 9.0 0.00 0.01 0.00 37 1003.6
20260507110005 73 323 4.0 7.0 0.00 0.01 0.00 43 1003.8
20260507105005 72 275 3.0 9.0 0.00 0.01 0.00 45 1003.7
20260507104005 75 225 4.0 6.0 0.00 0.01 0.00 41 1003.7
20260507103005 74 280 0.0 1.0 0.00 0.01 0.00 43 1003.7
20260507102007 71 63 0.0 0.0 0.00 0.01 0.00 50 1003.7
20260507101005 73 338 0.0 7.0 0.00 0.01 0.00 47 1003.7
20260507100005 76 292 0.0 0.0 0.00 0.01 0.00 43 1003.8
20260507095005 76 55 0.0 0.0 0.00 0.01 0.00 44 1003.9
20260507094006 77 270 0.0 0.0 0.00 0.01 0.00 41 1003.9
20260507093005 71 104 0.0 5.0 0.00 0.01 0.00 50 1003.8
20260507092005 71 8 1.0 6.0 0.00 0.01 0.00 51 1003.9
20260507091005 76 256 0.0 0.0 0.00 0.01 0.00 44 1003.8
20260507090005 73 111 0.0 0.0 0.00 0.01 0.00 46 1003.7
20260507085005 73 257 0.0 0.0 0.00 0.01 0.00 49 1003.7
20260507083005 72 112 0.0 0.0 0.00 0.01 0.00 53 1003.6
20260507082004 69 108 0.0 0.0 0.00 0.01 0.00 60 1003.7
20260507081005 67 127 0.0 0.0 0.00 0.01 0.00 63 1003.7
20260507080005 64 173 0.0 2.0 0.00 0.01 0.00 68 1003.8
20260507074005 59 202 5.0 7.0 0.00 0.01 0.00 78 1004.0
20260507072005 58 215 0.0 5.0 0.00 0.01 0.00 79 1003.6
20260507071004 56 188 1.0 2.0 0.00 0.01 0.00 84 1003.4
20260507065005 55 211 0.0 1.0 0.00 0.01 0.00 84 1003.3
20260507064005 54 195 0.0 3.0 0.00 0.01 0.00 87 1003.2
20260507063005 52 190 1.0 3.0 0.00 0.01 0.00 90 1003.2
20260507062005 51 187 0.0 1.0 0.00 0.01 0.00 92 1002.9
20260507060004 49 190 0.0 0.0 0.00 0.01 0.00 98 1002.7
20260507055005 50 192 0.0 0.0 0.00 0.01 0.00 99 1002.6
20260507054004 50 180 0.0 0.0 0.00 0.01 0.00 96 1002.5
20260507053005 50 112 0.0 0.0 0.00 0.01 0.00 96 1002.7
20260507052005 51 158 0.0 0.0 0.00 0.01 0.00 97 1002.7
20260507051006 50 112 0.0 0.0 0.00 0.01 0.00 98 1002.7
20260507050006 51 113 0.0 0.0 0.00 0.01 0.00 98 1002.9
20260507045006 51 99 0.0 0.0 0.00 0.01 0.00 96 1002.9
20260507044006 51 137 0.0 0.0 0.00 0.01 0.00 95 1003.0
20260507042006 51 202 0.0 0.0 0.00 0.01 0.00 95 1003.2
20260507041005 51 119 0.0 0.0 0.00 0.01 0.00 95 1003.3
20260507035005 51 123 0.0 0.0 0.00 0.01 0.00 94 1003.4
20260507034005 52 124 0.0 0.0 0.00 0.01 0.00 93 1003.4
20260507033006 52 170 0.0 0.0 0.00 0.01 0.00 93 1003.4
20260507032005 52 315 0.0 0.0 0.00 0.01 0.00 93 1003.4
20260507031006 53 123 0.0 0.0 0.00 0.01 0.00 92 1003.4
20260507025005 53 178 0.0 0.0 0.00 0.01 0.00 92 1003.5
20260507024006 52 180 0.0 0.0 0.00 0.01 0.00 92 1003.5
20260507023007 53 202 0.0 0.0 0.00 0.01 0.00 92 1003.6
20260507022006 54 202 0.0 0.0 0.00 0.01 0.00 93 1003.6
20260507021005 54 45 0.0 0.0 0.00 0.01 0.00 93 1003.6
20260507020005 55 12 0.0 0.0 0.00 0.01 0.00 90 1003.7
20260507015006 55 304 0.0 1.0 0.00 0.01 0.00 90 1003.8
20260507013005 56 56 1.0 6.0 0.00 0.01 0.00 88 1003.8
20260507012006 56 56 1.0 2.0 0.00 0.01 0.00 88 1003.9
20260507011005 56 66 0.0 1.0 0.00 0.01 0.00 88 1003.8
20260507005005 56 57 0.0 1.0 0.00 0.01 0.00 88 1004.2
20260507004005 56 35 0.0 0.0 0.00 0.01 0.00 88 1004.2
20260507003006 56 22 0.0 0.0 0.00 0.01 0.00 88 1004.2
20260507002005 56 56 0.0 0.0 0.00 0.01 0.00 87 1004.4
20260507001006 56 352 0.0 1.0 0.00 0.01 0.00 86 1004.4
20260507000005 56 28 0.0 6.0 0.00 0.01 0.00 85 1004.3
20260506235005 57 37 2.0 7.0 0.00 0.01 0.00 85 1004.3
20260506234005 57 31 4.0 8.0 0.00 0.01 0.00 84 1004.3
20260506233005 57 22 3.0 12.0 0.00 0.01 0.00 84 1004.3
20260506232005 57 22 7.0 9.0 0.00 0.01 0.00 84 1004.3
20260506231005 57 52 1.0 8.0 0.00 0.01 0.00 84 1004.4
20260506230005 57 44 2.0 7.0 0.00 0.01 0.00 84 1004.5
20260506225005 58 22 5.0 9.0 0.00 0.01 0.01 83 1004.5
20260506224006 58 354 5.0 9.0 0.00 0.01 0.01 82 1004.5
20260506223006 58 22 8.0 15.0 0.00 0.01 0.01 81 1004.6
20260506222005 58 60 7.0 10.0 0.00 0.01 0.01 81 1004.7
20260506221005 58 336 2.0 12.0 0.00 0.01 0.01 81 1004.7
20260506220005 58 2 5.0 10.0 0.00 0.01 0.01 80 1004.9
20260506215006 58 6 6.0 10.0 0.00 0.01 0.01 80 1004.8
20260506214006 58 30 7.0 10.0 0.00 0.01 0.01 79 1004.8
20260506212005 59 8 7.0 10.0 0.00 0.01 0.01 79 1004.7
20260506211006 59 21 5.0 9.0 0.00 0.01 0.01 78 1004.7
20260506210005 59 25 7.0 14.0 0.00 0.01 0.01 77 1004.6
20260506205005 59 351 6.0 9.0 0.01 0.01 0.01 76 1004.5
20260506203005 59 359 0.0 6.0 0.01 0.01 0.01 73 1004.5
20260506202005 60 81 6.0 8.0 0.01 0.01 0.01 72 1004.3
20260506201006 61 359 6.0 12.0 0.01 0.01 0.01 69 1004.3
20260506200005 61 6 10.0 14.0 0.01 0.01 0.01 66 1004.0
20260506195005 61 5 11.0 14.0 0.00 0.00 0.00 65 1004.1
20260506194006 62 335 9.0 13.0 0.00 0.00 0.00 66 1004.1
20260506193005 62 349 9.0 16.0 0.00 0.00 0.00 64 1004.1
20260506191005 64 28 9.0 12.0 0.00 0.00 0.00 59 1003.7
20260506190006 65 100 6.0 10.0 0.00 0.00 0.00 59 1003.5
20260506185005 66 45 6.0 9.0 0.00 0.00 0.00 56 1003.5
20260506183006 67 292 8.0 13.0 0.00 0.00 0.00 52 1003.5
20260506182005 67 303 11.0 15.0 0.00 0.00 0.00 50 1003.4
20260506180006 68 9 11.0 14.0 0.00 0.00 0.00 48 1003.6
20260506175005 68 298 10.0 16.0 0.00 0.00 0.00 46 1003.7
20260506174006 69 324 10.0 15.0 0.00 0.00 0.00 45 1003.7
20260506173005 70 352 10.0 14.0 0.00 0.00 0.00 46 1003.7
20260506172005 70 302 10.0 14.0 0.00 0.00 0.00 45 1003.8
20260506171005 71 10 9.0 14.0 0.00 0.00 0.00 44 1003.6
20260506170005 71 30 12.0 14.0 0.00 0.00 0.00 44 1003.6
20260506165005 72 315 9.0 16.0 0.00 0.00 0.00 43 1003.6
20260506164005 72 353 12.0 14.0 0.00 0.00 0.00 45 1003.6
20260506163005 73 14 7.0 15.0 0.00 0.00 0.00 43 1003.7
20260506162006 74 270 8.0 16.0 0.00 0.00 0.00 43 1003.8
20260506161008 73 327 10.0 16.0 0.00 0.00 0.00 44 1003.7
20260506160005 73 2 10.0 18.0 0.00 0.00 0.00 45 1003.7
20260506155005 74 28 10.0 16.0 0.00 0.00 0.00 43 1003.6
20260506153005 73 304 9.0 17.0 0.00 0.00 0.00 44 1003.8
20260506152005 75 302 8.0 13.0 0.00 0.00 0.00 41 1004.1
20260506151005 74 307 6.0 16.0 0.00 0.00 0.00 41 1004.1
20260506150005 74 13 9.0 12.0 0.00 0.00 0.00 42 1004.3
20260506145008 74 36 7.0 10.0 0.00 0.00 0.00 39 1004.3
20260506144005 74 294 11.0 14.0 0.00 0.00 0.00 40 1004.3
20260506143005 74 321 9.0 13.0 0.00 0.00 0.00 40 1004.5